Back to catalog

STARLINK-5363

AliveCommunicationsVLEO
NORAD 55497·PAYLOAD·🇺🇸 United States

Launched Feb 2, 2023 from Cape Canaveral Space Force Station

Loading…

Next Passes (next 24 hours)

TLE

FreshSource: CelesTrak SupGP

Epoch: Sep 15, 2026, 03:11 UTC

1 55497C 23015BA  26258.13312500  .00019014  00000+0  68881-3 0  2585
2 55497  43.0043 349.9944 0002086 271.7142 189.0003 15.27562056    19

Track STARLINK-5363 in real time with AllMySat

Download on the App Store